Regional Weather Roundup
Issued by NWS

Home | Current Version | Previous Version | Text Only | Print | Product List | Glossary On
Versions: 1 2 3 4 5 6 7 8 9 10 11 12 13 14 15 16 17 18 19 20 21 22 23 24 25 26 27 28 29 30 31 32 33 34 35 36 37 38 39 40 41 42 43 44 45 46 47 48 49 50
524
ASUS43 KTOP 182359
RWRKS

WEATHER ROUNDUP FOR KANSAS
NATIONAL WEATHER SERVICE GOODLAND KS
700 PM CDT WED OCT 18 2017

NOTE:  "FAIR" INDICATES FEW OR NO CLOUDS BELOW 12,000 FEET WITH NO
SIGNIFICANT WEATHER AND/OR OBSTRUCTIONS TO VISIBILITY.

KSZ001>006-013>018-027>032-041>047-190100-
NORTHWEST KANSAS

CITY           SKY/WX    TMP DP  RH WIND       PRES   REMARKS
GOODLAND       CLEAR     65  32  29 E5        30.08R
6HR MIN TEMP:  65; 6HR MAX TEMP:  83;

HAYS           CLEAR     71  38  29 NE7       30.00R
HILL CITY      CLEAR     67  38  34 N10       30.03R
6HR MIN TEMP:  67; 6HR MAX TEMP:  85;

RUSSELL        CLEAR     72  40  31 NE6       29.97R
6HR MIN TEMP:  71; 6HR MAX TEMP:  85;

$$

KSZ061>065-074>080-084>089-190100-
SOUTHWEST KANSAS

CITY           SKY/WX    TMP DP  RH WIND       PRES   REMARKS
DODGE CITY     PTCLDY    69  46  43 SE8       30.02R
6HR MIN TEMP:  69; 6HR MAX TEMP:  89;

ELKHART          N/A     72  43  35 E6          N/A
GARDEN CITY    PTCLDY    73  35  25 E9        30.02R
6HR MIN TEMP:  73; 6HR MAX TEMP:  86;

GREAT BEND     PTCLDY    69  49  48 S6        29.99R
LIBERAL        CLOUDY    75  40  28 E5        30.03R
$$

KSZ066>073-081>083-090>101-190100-
SOUTHEAST KANSAS

CITY           SKY/WX    TMP DP  RH WIND       PRES   REMARKS
CHANUTE        CLEAR     66  52  60 S9        30.04R
6HR MIN TEMP:  66; 6HR MAX TEMP:  75;

COFFEYVILLE    CLEAR     67  50  54 S8        30.03S
6HR MIN TEMP:  67; 6HR MAX TEMP:  77;

HUTCHINSON     CLEAR     66  52  60 S6        29.99R
6HR MIN TEMP:  66; 6HR MAX TEMP:  81;

MEDICINE LODGE   N/A     72  49  44 SE8       29.99R
NEWTON         CLEAR     66  49  54 S8        30.01R
PARSONS        CLEAR     66  50  56 S3        30.05R
6HR MIN TEMP:  66; 6HR MAX TEMP:  77; 6HR PCP: TRACE;

WICHITA INTL   MOCLDY    68  50  52 S7        30.00R
6HR MIN TEMP:  68; 6HR MAX TEMP:  78;

WICHITA JABRA  CLEAR     67  50  54 S6        30.00S
6HR MIN TEMP:  67; 6HR MAX TEMP:  79;

WICHITA MCCONL CLEAR     68  48  47 S7        30.01R
WINFIELD       PTCLDY    67  50  54 S8        30.02R
6HR MIN TEMP:  67; 6HR MAX TEMP:  80;

$$

KSZ007>012-019>026-033>040-048>060-102>105-190100-
NORTHEAST KANSAS

CITY           SKY/WX    TMP DP  RH WIND       PRES   REMARKS
CONCORDIA      CLEAR     67  52  58 CALM      29.98R
6HR MIN TEMP:  66; 6HR MAX TEMP:  75;

EMPORIA        MOCLDY    68  49  50 S7        30.00R
6HR MIN TEMP:  68; 6HR MAX TEMP:  77;

LAWRENCE       PTCLDY    64  50  60 SE6       30.00R
6HR MIN TEMP:  64; 6HR MAX TEMP:  76;

MANHATTAN      CLEAR     61  52  72 CALM      29.97R
6HR MIN TEMP:  61; 6HR MAX TEMP:  78;

OLATHE IND     PTCLDY    63  50  62 S6        30.02R
6HR MIN TEMP:  63; 6HR MAX TEMP:  74;

OLATHE EXE     MOCLDY    65  49  56 S7        30.02R
6HR MIN TEMP:  65; 6HR MAX TEMP:  73;

SALINA         PTCLDY    69  55  60 SE7       29.98R
6HR MIN TEMP:  69; 6HR MAX TEMP:  80;

TOPEKA BILLARD CLOUDY    67  51  56 S7        29.99R
6HR MIN TEMP:  67; 6HR MAX TEMP:  78;

TOPEKA FORBES  PTCLDY    67  51  56 S7        29.99R
6HR MIN TEMP:  67; 6HR MAX TEMP:  80;

$$




USA.gov is the U.S. government's official web portal to all federal, state and local government web resources and services.